Other Public Products
Issued by NWS Grand Forks, ND

Home | Current Version | Previous Version | Graphics & Text | Print | Product List | Glossary On
Versions: 1 2 3 4 5 6 7 8 9 10 11 12 13 14 15 16 17 18 19 20 21 22 23 24 25 26 27 28 29 30 31 32 33 34 35 36 37 38 39 40 41 42 43 44 45 46 47 48 49 50
000
FPUS83 KFGF 281631
OPUFGF
PRAIRIE TO PINES WEATHER ROUNDUP
NATIONAL WEATHER SERVICE EASTERN NORTH DAKOTA/GRAND FORKS ND
1100 AM CDT TUE MAR 28 2017

 **SATELLITE DATA USED TO AUGMENT SKY COVER AT AUTOMATED STATIONS**
 *****  WEATHER ACROSS EASTERN NORTH DAKOTA  *****

CITY           SKY/WX    TMP DP  RH WIND       PRES   REMARKS
GRAND FORKS    FAIR      42  35  76 NE7       30.19R
GRAND FORKS AF FAIR      40  35  82 N7        30.19R
GRAND CITY NWS NOT AVBL
BUXTON         NOT AVBL
DEVILS LAKE    NOT AVBL
FARGO          CLOUDY    37  32  82 CALM      30.18R FOG
WAHPETON ARPT    N/A     36  34  93 CALM      30.18R
$$

 *****  WEATHER ACROSS CENTRAL AND WESTERN NORTH DAKOTA  *****

CITY           SKY/WX    TMP DP  RH WIND       PRES   REMARKS
JAMESTOWN      CLOUDY    37  36  96 CALM      30.15R
BISMARCK       FAIR      40  37  89 NE8       30.14S
MINOT          CLOUDY    38  36  92 SE10      30.12S FOG
MINOT AFB      FOG       35  35  99 SE10      30.12R VSB 3/4
GARRISON         N/A     34  34 100 E7        30.12R
WILLISTON      CLOUDY    41  36  82 E7        30.08R
DICKINSON      PTSUNNY   38  34  85 E7        30.06R
HETTINGER      FAIR      49  37  63 SE10      30.08R
$$

 *****  OTHER OBSERVATIONS NORTHEAST NORTH DAKOTA  *****

CITY           SKY/WX    TMP DP  RH WIND       PRES   REMARKS
WALHALLA       NOT AVBL
LANGDON        FAIR      39  34  81 E9        30.19R
CAVALIER       FAIR      34  30  86 NW12      30.22S
GRAFTON        CLOUDY    37  36  93 N13       30.22S
CANDO          NOT AVBL
FORT TOTTEN      N/A     45  37  74 E5        29.95S
ROLLA          PTSUNNY   32  32 100 NE10      30.18S WCI  24
RUGBY          NOT AVBL
 ***** THE ABOVE OBSERVATIONS ARE NON NWS ARE NOT QUALITY
        CONTROLLED AND MAY MIS-REPORT RAIN FOR SNOW...
$$

 *****  OTHER OBSERVATIONS SOUTHEAST NORTH DAKOTA *****

CITY           SKY/WX    TMP DP  RH WIND       PRES   REMARKS
COOPERSTOWN    FAIR      43  37  81 NE8       30.17S
VALLEY CITY    FAIR      43  43 100 E6        30.18R
OAKES          NOT AVBL
GWINNER        CLOUDY    37  37 100 MISG      30.16S FOG
SHEYENNE NWR     N/A     35  35 100 NE5       29.95S
BUFFALO        NOT AVBL
WYNDMERE         N/A     36  36 100 N3          N/A
 ***** THE ABOVE OBSERVATIONS ARE NON NWS ARE NOT QUALITY
       CONTROLLED AND MAY MIS-REPORT RAIN FOR SNOW...
$$

  *****  WEATHER ACROSS NORTHERN MINNESOTA  *****

CITY           SKY/WX    TMP DP  RH WIND       PRES   REMARKS
FLAG ISLAND    FAIR      36  27  69 N6        30.22R
WARROAD        FAIR      37  30  75 NE7       30.22S
ROSEAU         FAIR      45  36  70 NE6       30.21S
HALLOCK        PTSUNNY   37  34  87 N8        30.21R
THF RVR FALLS  FAIR      45  35  68 E8        30.18S
HALSTAD          N/A     45  39  80 NE3         N/A
FOSSTON        FAIR      48  37  66 NE6       30.16F
BAUDETTE       FAIR      47  30  51 VRB5      30.19R
WASKISH        FAIR      48  36  61 W5        30.17S
CROOKSTON      FAIR      45  37  76 CALM      30.19R
$$
  *****  WEATHER ACROSS CENTRAL AND WEST MINNESOTA  *****

CITY           SKY/WX    TMP DP  RH WIND       PRES   REMARKS
BEMIDJI        FAIR      48  30  49 NW3       30.16R
PARK RAPIDS    FAIR      52  30  43 CALM      30.14R
WADENA         FAIR      52  37  58 CALM      30.15R HAZE
DETROIT LAKES  FAIR      48  32  53 CALM      30.16S
MOORHEAD       FOG       36  34  93 CALM      30.18S VSB 3/4
FERGUS FALLS   FAIR      48  37  66 CALM      30.19R
ELBOW LAKE     FAIR      46  38  73 NW5       30.16S
MORRIS MN      FAIR      52  37  58 N3        30.15R
STAPLES        FAIR      54  37  54 N5        30.14S
WHEATON        CLOUDY    36  36 100 CALM      30.19S FOG
$$
  *****  WEATHER ELSEWHERE ACROSS MINNESOTA  *****

CITY           SKY/WX    TMP DP  RH WIND       PRES   REMARKS
DULUTH         FAIR      51  32  48 S3        30.14R
INTRNTL FALLS  FAIR      46  30  53 N3        30.18R
ELY            FAIR      46  25  42 CALM      30.14S
CLOQUET        FAIR      52  28  40 SE3       30.14S
BRAINERD       FAIR      51  35  54 SW7       30.15R
HIBBING        FAIR      48  32  53 CALM      30.14R
ALEXANDRIA     FAIR      53  36  52 CALM      30.15S
SAINT CLOUD    FAIR      53  38  56 NW3       30.15R
MINNEAPOLIS    FAIR      52  37  56 CALM      30.15R
$$

  *****  WEATHER ACROSS SOUTH DAKOTA  *****

CITY           SKY/WX    TMP DP  RH WIND       PRES   REMARKS
SIOUX FALLS    PTSUNNY   52  41  66 CALM      30.14R
BROOKINGS      FAIR      51  39  63 CALM      30.13R
WATERTOWN      FAIR      51  37  58 E5        30.13R
HURON          FAIR      49  42  77 SE7       30.13S
SISSETON         N/A     38  38 100 CALM      30.16R
ABERDEEN       FAIR      43  34  70 VRB3      30.16R
MITCHELL       FAIR      50  41  71 SE8       30.14R
PIERRE         PTSUNNY   49  40  71 SE9       30.07R
MOBRIDGE       FAIR      47  37  68 E8        30.08R
RAPID CITY     LGT RAIN  41  38  89 SE8       30.02R
$$

  *****  SOME WEATHER IN NEARBY STATES *****

CITY           SKY/WX    TMP DP  RH WIND       PRES   REMARKS
GLASGOW MT     FAIR      37  33  85 SE7       30.08S
GREAT FALLS MT FAIR      43  27  53 SW20      30.11R
CHEYENNE WY    CLOUDY    39  38  96 N15G22    29.90R FOG
SCOTTSBLUFF NE CLOUDY    46  43  89 E16       29.92S
OMAHA NE       CLOUDY    47  42  83 CALM      30.12S
DES MOINES IA  CLOUDY    49  43  80 NE5       30.13R
DAVENPORT IA   CLOUDY    47  45  93 E9        30.13R FOG
CHICAGO IL     CLOUDY    43  38  82 N10       30.12R
EAU CLAIRE WI  FAIR      39  38  96 CALM      30.16S
LA CROSSE WI   FAIR      46  40  79 NW5       30.17R
$$

  *****  SOME NATIONAL WEATHER *****

CITY           SKY/WX    TMP DP  RH WIND       PRES   REMARKS
LA GUARDIA NY  LGT RAIN  43  40  89 NE14      29.93F VSB 1/2
RALEIGH NC     PTSUNNY   68  60  75 SW12      29.94F
ATLANTA GA     PTSUNNY   70  63  78 W8G20     30.02R
NEW ORLEANS LA FAIR      78  67  68 S9        30.02F
OKLAHOMA CITY  PTSUNNY   54  48  80 E18       29.93F
ALBUQUERQUE NM PTSUNNY   44  38  79 NE12      29.82F
SALT LAKE CITY FAIR      42  33  70 N14       30.14R
LOS ANGELES CA FAIR      61  49  64 S5        30.04R
BOISE ID       FAIR      40  32  73 CALM      30.27S
SEATTLE WA     LGT RAIN  47  42  83 S10       30.20S
$$

*** WEATHER ACROSS MANITOBA...SASKATCHEWAN AND ONTARIO ***
                ***ONTARIO***

CITY           SKY/WX    TMP DP  RH WIND       PRES   REMARKS
GERALDTON      CLOUDY    30  21  69 N5        30.20R
THUNDER BAY    PTSUNNY   45  28  53 E3        30.16S
SIOUX LOOKOUT  PTSUNNY   34  19  55 VRB3      30.22R
TORONTO        CLOUDY    43  37  81 N15G22    29.99S
BIG TROUT LK   CLOUDY    18  12  79 NW7       30.33R WCI   8
PICKLE LAKE    CLOUDY    23  14  68 N5        30.26R WCI  17
DRYDEN         PTSUNNY   34  23  64 NE8       30.21R
KENORA         PTSUNNY   34  23  64 N6        30.21R
$$
                *** MANITOBA***

CITY           SKY/WX    TMP DP  RH WIND       PRES   REMARKS
BRANDON        FLURRIES  28  25  86 E15       30.22F WCI  17
DAUPHIN        CLOUDY    28  23  80 NE6       30.27S WCI  22
ISLAND LAKE    NOT AVBL
PILOT MOUND      N/A     34  27  75 NE9         N/A
THE PAS        CLOUDY    23  14  68 SE12      30.30S WCI  12
THOMPSON       MOSUNNY   12   7  79 W3        30.39F
WINNIPEG       PTSUNNY   34  28  80 N8        30.26R
LYNN LAKE      MOSUNNY   16  14  93 SE6       30.30F WCI   7
CHURCHILL      SUNNY      1  -2  85 CALM      30.49S
GILLAM         FLURRIES  16   3  57 N5        30.44S WCI   9
$$
                ***SASKATCHEWAN***

CITY           SKY/WX    TMP DP  RH WIND       PRES   REMARKS
ESTEVAN        CLOUDY    34  32  93 E13G20    30.11S FOG     WCI  25
KINDERSLEY     PTSUNNY   43  37  81 SE7       29.95S
LLOYDMINSTER   FOG       34  34 100 SE10      29.95F VSB 3/8
PRINCE ALBERT  CLOUDY    34  28  80 SE10      30.11S
REGINA         CLOUDY    36  34  93 SE17      30.11S
YORKTON        CLOUDY    34  28  80 SE12      30.18S


USA.gov is the U.S. government's official web portal to all federal, state and local government web resources and services.